Location: Kervinic
(48.4279°N, 4.7373°W)
Time: 07:05:20
(UTC+00:00)

ATLAS CENTAUR R/B - Pass Details

Date: 09 April 2020
Orbit: 471 x 675 km, 64.7° (Epoch: 01 June)

Event Time Altitude Azimuth Distance (km) Brightness Sun altitude
Rises 20:14:34 0° 326° (NNW) 2,719 6.0 -12.1°
Reaches altitude 10° 20:17:33 10° 349° (NNW) 1,778 4.5 -12.6°
Maximum altitude 20:20:03 16° 28° (NNE) 1,404 3.4 -12.9°
Enters shadow 20:22:26 10° 67° (ENE) 1,700 3.5 -13.3°
